Wind_Speed
14 14 14 14 14 11 10 10 8 8 8 7 7 6 6 7 7 6 7 7 7 7 7 6 6 5 5 4 4 5 5 6 5 5 6 7 7 8 8 9 10 10 9 9 9 8 9 9 9
14 13 14 15 12 10 9 9 9 8 8 7 7 7 7 7 7 7 7 7 7 7 7 6 6 5 5 4 4 4 5 5 5 5 6 6 6 7 7 8 8 8 8 8 8 8 8 9 8
14 14 16 14 10 10 9 9 8 8 8 7 7 7 7 7 8 8 8 7 7 7 6 6 6 5 5 4 4 4 5 5 5 5 6 6 6 6 7 7 7 7 7 8 7 6 8 7 6
13 15 16 13 10 10 9 9 9 9 8 8 7 8 8 7 8 8 8 8 7 7 6 6 6 6 5 5 4 4 4 5 5 5 5 5 6 6 7 7 7 7 7 7 7 6 7 6 5
14 16 13 10 10 10 9 9 9 9 9 8 8 8 8 8 8 8 8 8 8 8 7 6 6 6 6 4 4 4 5 5 5 5 5 6 6 6 6 7 6 6 6 6 6 6 6 5 4
14 15 10 8 10 9 9 9 9 10 9 8 8 8 8 8 8 8 8 8 8 8 7 7 7 6 6 5 5 5 5 6 6 6 6 6 6 6 6 6 6 6 6 6 6 5 5 4 3
13 11 9 9 9 9 9 9 10 10 9 9 9 9 9 8 8 8 9 9 8 7 7 8 7 7 6 6 6 6 6 6 6 6 6 6 6 6 5 5 5 6 6 5 5 4 4 3 3
11 9 7 8 8 8 8 8 9 10 10 9 9 9 9 9 8 9 9 9 8 8 8 8 8 7 7 7 7 6 7 6 6 6 6 6 6 5 5 5 5 5 5 5 5 5 3 3 3
9 7 7 6 7 8 8 8 9 9 10 10 10 9 9 9 9 9 9 9 9 9 8 8 8 8 8 8 8 7 6 6 6 6 6 6 6 5 5 5 4 4 4 4 4 4 3 3 2
7 5 5 5 6 7 8 8 9 9 10 10 10 9 9 9 9 10 10 10 10 9 9 9 9 9 8 8 8 7 6 5 5 5 5 5 5 5 5 4 4 4 3 3 4 3 3 3 2
5 4 5 5 5 7 7 8 9 9 9 9 10 9 9 9 9 9 10 10 10 10 10 10 9 8 8 8 8 7 6 5 5 4 5 5 5 4 5 5 5 4 3 3 3 3 2 3 2
4 4 4 4 5 6 7 8 9 9 9 9 9 10 10 9 9 9 10 10 10 10 10 10 9 9 8 8 7 7 6 6 5 5 5 5 5 4 5 5 4 3 3 3 2 3 3 2 2
3 3 3 4 6 7 8 8 9 9 9 9 9 10 10 9 10 9 9 10 10 10 10 9 9 8 8 7 7 7 7 6 6 5 5 5 4 4 4 3 3 3 2 2 3 2 2 2 1
2 2 3 4 6 7 7 7 8 9 9 9 9 9 10 10 10 10 9 10 9 9 9 9 8 8 8 7 7 7 7 6 6 6 5 5 5 4 3 2 2 3 2 2 1 1 1 1 0
2 3 2 4 5 6 7 7 7 8 8 9 9 10 10 10 9 9 10 9 9 10 11 10 9 8 8 8 7 7 7 7 6 6 6 5 5 4 3 3 2 2 1 1 1 1 2 1 1
1 2 2 3 4 5 5 6 6 7 7 8 9 9 10 10 9 9 10 9 8 9 10 10 9 9 9 9 9 8 7 7 6 6 6 5 5 4 3 3 2 2 1 1 1 1 1 1 2
1 2 2 2 3 3 4 5 5 6 7 7 8 8 8 9 9 9 9 9 9 9 9 9 9 9 9 8 9 8 8 7 6 6 5 5 5 4 4 3 4 4 3 2 2 2 2 2 2
5 3 3 2 3 2 3 4 5 6 6 7 7 8 7 8 9 9 9 9 9 9 9 9 9 9 9 9 8 8 8 7 6 6 6 5 5 5 5 5 5 4 4 3 3 3 2 3 3
7 6 4 4 3 2 2 3 4 5 5 6 7 7 7 7 8 8 8 8 8 9 8 8 9 9 8 8 8 8 9 7 7 6 6 5 5 5 5 5 4 4 4 4 4 3 4 3 4
10 8 7 6 5 3 3 3 3 5 5 6 6 6 6 7 7 7 7 7 7 7 7 8 8 8 8 8 8 8 8 7 6 5 5 4 4 4 5 5 4 4 4 4 4 4 4 5 5
11 11 10 9 7 5 5 5 4 6 6 6 6 6 6 6 6 6 6 6 6 6 6 6 7 7 8 7 7 7 7 7 7 5 5 5 5 6 5 5 4 5 5 5 6 6 6 6 7
14 12 10 10 9 7 7 8 7 7 7 7 7 7 7 6 5 5 5 5 5 5 6 6 6 7 7 7 7 7 7 7 7 7 6 6 6 7 6 5 5 5 5 6 7 7 8 8 8
14 12 11 12 11 10 9 9 9 9 9 7 6 6 7 6 5 5 5 5 5 5 5 6 6 6 7 8 7 7 7 7 8 8 7 7 6 6 6 6 6 6 7 7 7 8 8 9 9
14 13 13 12 12 13 10 10 13 10 10 9 8 7 7 7 6 5 4 5 5 5 5 6 6 6 7 8 8 8 8 7 8 8 8 8 7 7 7 7 7 8 9 9 9 9 9 9 9
17 15 14 14 14 15 12 12 14 12 12 11 9 8 7 7 6 5 5 5 5 6 6 6 7 7 7 8 8 8 8 7 8 9 10 9 9 8 8 8 8 9 10 10 10 10 10 10 10
20 18 17 14 14 14 13 13 14 13 13 11 10 10 8 8 8 7 6 6 6 6 7 7 8 8 8 8 8 8 8 8 9 10 11 10 10 9 9 9 9 10 11 11 11 11 12 11 11
21 19 16 15 15 16 15 14 15 14 14 12 12 11 9 9 9 8 7 7 7 7 8 9 9 9 9 9 9 9 9 9 10 11 12 11 10 10 10 10 11 11 12 12 12 12 12 12 12
22 20 19 19 18 17 14 15 15 14 14 13 13 12 10 10 9 9 9 8 9 9 9 10 11 11 11 10 10 10 10 10 11 12 12 11 11 11 11 11 12 12 12 12 13 13 13 13 13
23 23 23 22 20 18 16 17 16 15 14 14 13 12 12 11 11 11 11 10 11 11 11 12 12 12 12 11 11 11 11 11 11 12 12 11 11 11 12 12 13 13 13 13 13 13 14 14 14
25 24 24 23 22 20 20 20 17 16 15 16 14 15 14 13 13 13 13 13 13 12 13 13 13 13 13 12 12 12 12 12 12 12 12 12 12 13 13 13 14 14 14 14 14 14 14 14 14
Wind_Direction
67 68 69 62 58 51 48 46 46 51 46 44 45 52 56 57 55 54 54 60 64 63 62 63 70 75 72 74 79 76 85 89 92 89 104 110 120 121 125 128 128 128 132 135 135 134 133 131 127
64 67 64 57 47 40 46 42 45 43 43 43 46 53 55 58 58 57 56 59 63 64 60 62 68 70 68 69 68 69 84 88 95 96 103 107 113 119 118 120 126 125 130 134 137 137 135 132 130
66 64 60 54 36 38 42 39 42 39 40 40 46 51 55 58 55 53 53 56 58 58 57 62 63 59 59 64 69 75 82 86 100 101 105 108 108 115 119 118 125 130 134 136 138 140 137 133 130
71 66 58 43 36 38 42 43 45 41 45 43 45 51 55 57 55 51 50 53 53 53 56 61 60 55 54 57 67 82 88 92 100 100 104 106 113 115 123 125 127 132 139 140 140 140 141 136 133
67 60 56 42 39 36 42 47 46 50 47 47 48 50 52 53 54 51 48 51 52 52 52 54 54 56 57 58 75 84 97 104 107 102 100 108 117 120 120 129 129 129 132 136 138 141 141 138 143
65 55 42 36 32 34 40 47 44 41 44 44 45 48 51 50 51 49 48 49 51 51 48 51 50 54 60 71 82 89 100 103 108 108 104 109 113 117 120 126 129 128 133 144 150 147 143 143 148
67 62 39 25 25 32 39 44 43 39 41 43 45 49 51 52 53 52 49 49 48 47 45 47 49 53 62 74 81 87 96 102 107 102 102 107 115 121 123 124 127 127 132 148 155 149 147 149 145
63 62 52 33 27 36 41 44 44 40 41 42 43 48 50 52 54 54 53 52 48 46 45 45 49 57 63 66 76 85 94 100 102 98 97 99 108 118 127 131 128 137 143 152 156 158 149 149 150
65 49 39 27 28 38 45 47 42 40 41 44 44 46 49 52 55 55 53 50 47 47 46 45 46 53 56 62 74 83 87 91 94 93 95 94 97 105 118 129 127 140 154 159 162 165 148 141 146
52 29 34 27 34 40 45 45 42 40 44 46 45 47 49 51 54 53 51 52 50 49 49 51 53 56 59 61 65 72 80 81 86 89 90 91 91 98 115 126 131 139 153 159 163 163 158 149 136
60 25 37 45 44 44 38 38 40 38 45 46 43 45 47 50 53 53 51 51 50 48 49 52 53 53 60 63 64 67 73 81 85 88 88 86 86 89 112 123 127 122 130 151 157 142 136 127 123
68 36 43 50 45 45 42 40 38 39 43 42 43 45 48 52 55 54 50 49 48 46 47 51 51 51 58 62 63 63 69 74 80 81 80 83 81 81 111 118 113 116 119 125 129 141 152 147 141
75 44 44 45 41 44 40 44 40 38 40 40 42 45 47 49 52 51 49 49 46 46 47 47 49 51 57 60 57 58 62 67 71 76 76 75 72 84 111 108 103 110 111 109 97 108 138 146 147
109 68 38 42 38 40 43 41 39 38 37 37 41 45 44 47 51 47 44 43 43 46 47 47 49 51 56 56 54 58 61 63 65 68 72 68 67 84 93 91 93 89 94 95 101 108 95 82 68
71 60 37 28 32 36 38 36 38 36 36 38 39 39 38 41 47 45 41 41 44 50 47 50 52 52 54 54 54 59 60 64 64 62 62 62 64 73 69 63 54 46 61 87 84 79 60 46 19
51 22 9 15 19 20 26 26 33 32 32 36 35 37 38 38 42 45 42 43 46 48 48 50 51 52 53 54 53 56 58 59 61 58 55 57 55 51 55 50 40 36 45 77 51 55 39 359 351
182 307 308 358 351 5 6 7 18 30 24 27 27 30 35 35 39 42 43 43 43 43 48 52 53 53 50 50 49 52 53 52 56 54 50 50 42 48 54 51 54 55 51 42 33 31 21 343 324
199 242 287 306 300 337 348 10 1 22 23 17 23 24 23 29 33 37 40 43 41 42 46 49 52 51 47 45 46 46 45 48 53 53 49 47 41 48 46 48 51 43 37 33 28 29 13 346 336
211 222 236 240 252 280 325 7 352 358 8 12 16 22 18 17 22 31 35 37 39 42 43 47 47 45 42 40 40 40 42 45 47 49 48 40 42 44 36 41 47 35 22 22 22 16 358 343 340
217 218 233 244 237 253 290 305 322 334 343 354 360 9 13 6 11 22 27 31 35 37 36 37 39 39 36 35 36 35 37 41 45 43 38 31 27 30 27 27 24 20 13 12 5 1 355 344 340
220 220 224 231 232 245 274 291 302 304 315 327 339 347 354 3 9 15 16 21 26 27 24 24 28 27 27 30 31 25 27 29 24 18 18 14 15 13 11 6 359 358 356 355 350 346 343 340 339
223 226 228 235 244 248 258 269 284 299 299 307 325 335 341 344 346 356 4 1 5 13 15 14 16 18 19 16 12 11 17 13 7 3 6 9 6 2 356 349 345 343 341 340 338 337 335 334 332
222 223 234 242 246 246 243 258 268 278 286 294 308 321 327 332 329 339 351 348 344 349 358 4 3 2 4 3 3 1 3 360 355 351 350 355 356 346 339 336 335 333 333 330 328 329 328 328 325
220 226 236 240 244 251 246 250 261 259 268 281 288 302 312 318 319 325 337 338 335 336 341 346 349 348 347 349 354 354 349 350 346 343 342 341 337 332 331 331 330 327 326 323 319 322 324 324 322
219 222 229 232 240 249 253 252 260 259 261 269 275 284 291 303 307 306 310 324 325 321 326 332 333 333 335 338 343 345 347 347 347 346 344 339 336 337 334 338 331 329 330 328 323 320 320 317 315
222 222 226 230 240 247 248 250 255 263 265 267 268 273 273 286 294 299 306 315 311 314 317 320 323 325 324 328 332 333 336 335 337 341 341 337 335 336 340 338 331 327 325 324 323 324 318 314 313
224 225 229 233 245 248 248 251 252 263 267 267 266 268 273 276 284 292 297 306 312 316 315 316 319 321 319 318 318 319 324 327 331 337 338 335 333 332 329 328 326 324 323 322 322 321 319 317 317
226 227 230 230 238 245 246 252 249 254 262 266 269 268 267 269 271 275 283 297 305 306 307 311 314 315 313 311 313 316 321 322 324 328 333 333 330 329 327 324 322 321 320 319 318 320 318 319 318
226 225 226 230 233 241 250 254 256 253 259 261 265 267 269 267 269 275 282 291 295 299 301 303 305 309 309 306 307 311 314 318 320 323 326 325 324 323 323 321 320 319 317 315 315 312 310 311 312
228 228 227 230 232 233 244 255 256 262 267 263 263 267 267 265 268 272 279 287 288 291 296 297 298 303 306 305 303 305 309 313 314 315 318 318 318 318 317 318 318 316 315 315 315 314 310 310 310
Height
5883 5882 5881 5881 5880 5881 5879 5879 5878 5877 5876 5875 5874 5873 5872 5872 5872 5873 5870 5868 5868 5868 5867 5867 5867 5867 5867 5867 5867 5867 5867 5866 5866 5866 5866 5866 5867 5867 5868 5869 5870 5871 5873 5874 5876 5877 5878 5879 5880
5886 5885 5884 5883 5883 5883 5882 5881 5880 5879 5878 5877 5876 5875 5874 5873 5873 5872 5871 5870 5869 5869 5869 5869 5868 5868 5868 5868 5868 5868 5868 5868 5868 5868 5868 5868 5868 5869 5870 5871 5872 5873 5874 5876 5877 5878 5879 5880 5881
5888 5887 5886 5886 5886 5885 5885 5883 5882 5881 5880 5879 5878 5877 5876 5875 5874 5873 5872 5871 5871 5870 5870 5870 5869 5869 5869 5869 5869 5869 5869 5869 5869 5869 5869 5870 5870 5871 5871 5872 5873 5874 5875 5877 5878 5879 5880 5881 5883
5890 5889 5889 5891 5889 5888 5886 5885 5884 5883 5882 5881 5880 5879 5877 5876 5875 5875 5874 5873 5872 5872 5871 5871 5871 5870 5870 5870 5870 5870 5870 5870 5870 5870 5871 5871 5872 5872 5873 5874 5875 5876 5877 5878 5879 5880 5881 5882 5883
5891 5890 5892 5893 5891 5890 5888 5887 5886 5885 5884 5883 5882 5880 5879 5878 5877 5876 5875 5874 5874 5874 5873 5872 5872 5871 5871 5871 5871 5871 5871 5871 5871 5872 5872 5873 5873 5874 5875 5876 5876 5877 5878 5879 5879 5880 5882 5883 5884
5894 5895 5896 5894 5893 5892 5890 5889 5888 5887 5886 5885 5883 5882 5881 5880 5879 5878 5877 5876 5876 5875 5875 5874 5873 5872 5872 5872 5872 5872 5872 5872 5873 5873 5873 5874 5874 5875 5876 5877 5878 5878 5879 5880 5881 5881 5883 5884 5884
5898 5898 5899 5897 5895 5894 5893 5891 5890 5889 5888 5887 5885 5884 5882 5881 5880 5880 5879 5878 5877 5877 5876 5875 5874 5874 5873 5873 5873 5873 5873 5874 5874 5874 5875 5875 5876 5876 5877 5878 5879 5879 5880 5881 5882 5883 5883 5884 5885
5900 5901 5900 5899 5898 5896 5895 5894 5892 5891 5890 5888 5887 5886 5884 5883 5882 5881 5881 5880 5879 5878 5878 5877 5876 5875 5875 5875 5875 5875 5875 5875 5875 5876 5876 5876 5877 5878 5878 5879 5879 5880 5881 5882 5883 5883 5884 5885 5886
5903 5904 5902 5901 5900 5899 5897 5896 5895 5893 5892 5890 5889 5888 5887 5885 5884 5883 5883 5882 5881 5880 5879 5879 5878 5877 5877 5876 5876 5876 5876 5876 5877 5877 5877 5878 5878 5878 5879 5880 5880 5881 5882 5882 5883 5884 5885 5885 5886
5905 5905 5904 5903 5901 5900 5899 5898 5896 5895 5894 5892 5891 5890 5889 5888 5887 5886 5885 5884 5883 5882 5882 5881 5880 5879 5879 5879 5878 5878 5877 5878 5878 5879 5879 5879 5879 5880 5880 5880 5881 5881 5882 5883 5884 5884 5885 5886 5886
5907 5907 5905 5904 5903 5902 5901 5899 5898 5897 5896 5895 5893 5892 5891 5890 5889 5888 5887 5886 5885 5884 5884 5883 5882 5881 5881 5880 5880 5880 5880 5880 5880 5880 5880 5880 5881 5881 5881 5882 5882 5882 5883 5883 5884 5885 5885 5886 5886
5908 5908 5907 5906 5905 5904 5903 5901 5900 5899 5898 5897 5896 5894 5893 5892 5891 5890 5889 5888 5887 5886 5885 5885 5884 5883 5883 5882 5882 5882 5882 5881 5881 5881 5882 5882 5882 5882 5882 5883 5883 5883 5884 5884 5885 5885 5886 5886 5887
5909 5909 5908 5907 5906 5905 5904 5903 5902 5901 5900 5899 5898 5896 5895 5894 5893 5892 5891 5890 5890 5888 5887 5887 5886 5885 5885 5885 5884 5884 5883 5883 5883 5883 5883 5883 5883 5883 5883 5884 5884 5884 5884 5885 5886 5886 5886 5886 5886
5910 5910 5909 5908 5908 5907 5906 5906 5905 5903 5902 5901 5900 5899 5897 5896 5895 5894 5893 5892 5891 5890 5889 5888 5888 5887 5887 5886 5886 5886 5885 5885 5884 5884 5883 5884 5884 5884 5884 5885 5885 5884 5885 5886 5886 5886 5886 5887 5887
5910 5910 5910 5910 5909 5909 5908 5908 5906 5905 5904 5903 5902 5901 5900 5898 5897 5896 5895 5894 5892 5892 5891 5890 5889 5889 5889 5888 5888 5887 5887 5886 5886 5885 5885 5885 5885 5885 5885 5886 5886 5886 5886 5886 5886 5886 5886 5887 5887
5911 5911 5911 5911 5910 5910 5911 5909 5908 5907 5906 5905 5904 5903 5901 5900 5899 5898 5897 5896 5894 5893 5893 5893 5892 5891 5891 5891 5890 5889 5889 5888 5887 5887 5887 5886 5886 5886 5886 5886 5886 5886 5886 5886 5886 5886 5886 5887 5886
5911 5913 5912 5912 5912 5912 5911 5910 5909 5909 5908 5906 5905 5904 5903 5902 5901 5900 5899 5898 5897 5896 5895 5895 5894 5893 5893 5892 5892 5891 5891 5890 5889 5889 5888 5888 5887 5887 5887 5887 5887 5887 5886 5886 5886 5886 5886 5886 5886
5912 5914 5913 5913 5913 5913 5912 5912 5910 5910 5909 5908 5907 5906 5905 5904 5903 5902 5901 5900 5899 5898 5897 5897 5896 5896 5895 5894 5894 5893 5892 5891 5891 5890 5890 5889 5889 5888 5888 5887 5887 5887 5887 5887 5886 5886 5886 5886 5886
5911 5913 5914 5914 5913 5913 5913 5913 5912 5911 5911 5910 5909 5907 5906 5905 5905 5904 5903 5902 5901 5900 5899 5899 5898 5898 5897 5896 5895 5895 5894 5893 5892 5891 5891 5890 5890 5890 5889 5888 5888 5888 5887 5887 5886 5886 5886 5886 5885
5909 5912 5913 5914 5914 5914 5913 5913 5913 5912 5911 5911 5910 5909 5908 5907 5905 5905 5905 5904 5903 5902 5901 5900 5900 5899 5898 5898 5897 5896 5895 5894 5893 5892 5892 5891 5891 5891 5890 5890 5889 5888 5888 5887 5887 5886 5886 5886 5885
5908 5910 5912 5913 5913 5913 5913 5913 5912 5913 5912 5911 5910 5909 5909 5908 5907 5905 5905 5905 5904 5903 5902 5902 5901 5900 5900 5899 5898 5897 5896 5895 5895 5893 5893 5892 5892 5891 5891 5890 5890 5889 5888 5888 5887 5886 5886 5885 5885
5906 5908 5910 5911 5911 5911 5913 5913 5913 5912 5912 5911 5910 5910 5909 5908 5908 5907 5906 5905 5905 5904 5903 5902 5901 5901 5900 5899 5899 5898 5897 5896 5896 5894 5893 5893 5892 5891 5891 5890 5890 5889 5888 5887 5887 5886 5885 5885 5884
5905 5907 5908 5909 5909 5910 5912 5912 5912 5912 5910 5910 5910 5910 5909 5908 5908 5907 5906 5906 5905 5905 5904 5903 5902 5902 5901 5900 5899 5898 5897 5897 5896 5895 5894 5893 5892 5891 5891 5890 5889 5888 5888 5887 5886 5885 5884 5883 5882
5902 5904 5906 5906 5908 5908 5909 5911 5910 5910 5910 5909 5909 5909 5909 5908 5907 5907 5906 5906 5905 5905 5904 5903 5903 5902 5901 5900 5899 5898 5897 5897 5896 5895 5894 5893 5892 5891 5890 5889 5889 5888 5887 5886 5885 5884 5883 5882 5881
5899 5901 5903 5904 5905 5906 5908 5909 5908 5908 5908 5908 5907 5908 5908 5907 5907 5906 5906 5905 5905 5904 5904 5903 5903 5902 5901 5900 5899 5898 5897 5896 5896 5895 5894 5892 5891 5891 5890 5889 5888 5887 5886 5885 5884 5882 5881 5880 5879
5894 5898 5900 5902 5904 5904 5905 5905 5906 5905 5906 5906 5906 5906 5906 5906 5905 5905 5905 5904 5903 5903 5903 5903 5902 5901 5901 5900 5899 5898 5897 5896 5895 5895 5893 5892 5891 5890 5889 5888 5887 5886 5885 5883 5882 5881 5880 5878 5877
5890 5893 5897 5899 5901 5900 5901 5903 5903 5902 5903 5903 5904 5905 5904 5905 5904 5904 5904 5903 5902 5902 5902 5902 5901 5901 5900 5899 5898 5898 5897 5896 5895 5894 5892 5891 5890 5889 5888 5887 5886 5885 5884 5882 5881 5879 5878 5876 5875
5887 5891 5894 5895 5896 5897 5898 5899 5899 5898 5900 5901 5901 5902 5902 5902 5902 5902 5902 5902 5902 5901 5901 5901 5900 5899 5899 5898 5897 5897 5896 5895 5894 5893 5891 5890 5889 5888 5887 5886 5884 5883 5882 5880 5879 5877 5876 5875 5873
5882 5886 5888 5890 5892 5895 5895 5898 5896 5896 5896 5897 5898 5899 5900 5901 5901 5901 5901 5900 5900 5900 5899 5899 5898 5898 5897 5896 5896 5895 5894 5894 5892 5891 5890 5889 5888 5887 5886 5884 5883 5881 5880 5878 5876 5875 5873 5872 5871
5877 5880 5883 5886 5888 5890 5892 5895 5892 5893 5895 5895 5896 5897 5898 5898 5899 5899 5899 5898 5898 5897 5897 5897 5896 5895 5895 5894 5894 5893 5892 5891 5891 5889 5888 5887 5886 5885 5884 5882 5881 5879 5877 5875 5874 5872 5870 5869 5868